Weather Roundup
Issued by NWS Chicago, IL

Home | Current Version | Previous Version | Text Only | Print | Product List | Glossary On
Versions: 1 2 3 4 5 6 7 8 9 10 11 12 13 14 15 16 17 18 19 20 21 22 23 24 25 26 27 28 29 30 31 32 33 34 35 36 37 38 39 40 41 42 43 44 45 46 47 48 49 50
000
NZUS59 KLOT 290810
HRRLOT

CHICAGO AREA WEATHER ROUNDUP
NATIONAL WEATHER SERVICE CHICAGO/ROMEOVILLE IL
300 AM CDT FRI AUG 29 2014

NOTE: "FAIR" INDICATES FEW OR NO CLOUDS BELOW 12,000 FEET WITH NO
SIGNIFICANT WEATHER AND/OR OBSTRUCTIONS TO VISIBILITY.

* THESE STATIONS ARE NOT UNDER NWS QUALITY CONTROL. THEY ALSO MAY NOT
  REPORT WEATHER SUCH AS PRECIPITATION OR FOG.

ILZ005-006-012>014-019>023-290900-
NORTHEAST ILLINOIS

CITY           SKY/WX    TMP DP  RH WIND       PRES   REMARKS
OHARE          CLOUDY    71  63  75 S8        29.97F
MIDWAY         CLOUDY    73  66  78 S9        29.98S
AURORA         CLOUDY    69  66  90 SE5       29.98S FOG
LANSING*       CLOUDY    70  64  81 SE7       29.99S
JOLIET*        CLOUDY    69  66  89 CALM      29.99S
WAUKEGAN       MOCLDY    70  67  90 SE6       29.97F
DUPAGE AIRPORT CLOUDY    69  66  90 S5        29.98S
WHEELING       CLOUDY    72  66  81 S7        29.98F
KANKAKEE*      CLOUDY    70  67  90 SE9       29.99F
MORRIS*        CLOUDY    69  69 100 CALM      29.97S FOG
LEWIS AIRPORT* CLOUDY    69  67  94 S6        29.98F
NORTHERLY IS     N/A     72  64  76 S10         N/A
$$

WIZ051-052-058>065-066-070>072-290900-
SOUTHEAST WISCONSIN

CITY           SKY/WX    TMP DP  RH WIND       PRES   REMARKS
MILWAUKEE      PTCLDY    69  65  86 SE8       29.97F
KENOSHA*       MOCLDY    70  68  93 SE6       29.98F
RACINE*        PTCLDY    70  66  87 SE9       29.99F
BURLINGTON     PTCLDY    60  60  99 CALM      29.97F
WAUKESHA       PTCLDY    63  61  94 SE6       29.98F
WEST BEND      MOCLDY    64  59  82 SE5       29.98F
$$

INZ001>003-010>013-019-020-290900-
NORTHWEST INDIANA

CITY           SKY/WX    TMP DP  RH WIND       PRES   REMARKS
GARY*          CLOUDY    72  65  79 SE8       29.99S
MICHIGAN CITY* NOT AVBL
RENSSELAER*    NOT AVBL
VALPARAISO     CLOUDY    68  62  81 SE6       30.02F
$$

LMZ740>746-290900-
SOUTHERN LAKE MICHIGAN

STATION/POSITION TIME  SKY/WX   TEMP WIND        PRES    VSBY
                                AIR  DIR/SP/G
                 (UTC)          (F)  (DEG/KT/KT) (MB)    (MI)
HARRISON CRIB    0800            72  170/ 20/ 22   N/A
BURNHAM HARBOR   0800            72  160/ 11/ 12   N/A
CALUMET HARBOR   0800            71  160/  9/ 12 1014.1S
BURNS HARBOR     NOT AVBL
MICHIGAN CITY    0800            71  130/ 15/ 20   N/A
$$

ABBREVIATIONS USED IN REMARKS
   TC - TEMPERATURE IN CELSIUS
  WCI - WIND CHILL INDEX
   HX - HEAT INDEX
  VSB - VISIBILITY
$$


USA.gov is the U.S. government's official web portal to all federal, state and local government web resources and services.